Back to catalog

COSMOS 249 DEB *

AliveLEO
NORAD 3758·DEBRIS·🇷🇺 Russia

Launched Oct 20, 1968 from Baikonur Cosmodrome

Loading…

Next Passes (next 24 hours)

TLE

FreshSource: Space-Track

Epoch: Sep 14, 2026, 11:11 UTC

1 03758U 68091AV  26257.46640008  .00000193  00000-0  31842-3 0  9991
2 03758  62.2598 268.7462 0774458 123.1965 244.5733 12.82644089625346

Track COSMOS 249 DEB * in real time with AllMySat

Download on the App Store